Location: Burgberg
(50.1428°N, 11.0671°E)
Time: 09:14:41
(UTC+00:00)

RESURS DK-1 - Pass Details

Date: 26 January 2020
Orbit: 554 x 564 km, 69.9° (Epoch: 16 February)

Event Time Altitude Azimuth Distance (km) Brightness Sun altitude
Rises 05:18:15 0° 207° (SSW) 2,731 5.7 -15.9°
Reaches altitude 10° 05:20:26 10° 206° (SSW) 1,842 4.8 -15.6°
Maximum altitude 05:24:33 82° 120° (ESE) 572 2.4 -14.9°
Drops below altitude 10° 05:28:43 10° 32° (NNE) 1,863 5.3 -14.3°
Sets 05:30:57 0° 32° (NNE) 2,766 6.2 -13.9°
